Regional Weather Roundup
Issued by NWS

Home | Current Version | Previous Version | Text Only | Print | Product List | Glossary On
Versions: 1 2 3 4 5 6 7 8 9 10 11 12 13 14 15 16 17 18 19 20 21 22 23 24 25 26 27 28 29 30 31 32 33 34 35 36 37 38 39 40 41 42 43 44 45 46 47 48 49 50
000
ASUS43 KLSX 100310
RWRMO

WEATHER SUMMARY FOR MISSOURI
NATIONAL WEATHER SERVICE SPRINGFIELD MO
900 PM CST TUE FEB 09 2016

NOTE: "FAIR" INDICATES FEW OR NO CLOUDS BELOW 12,000 FEET WITH NO
       SIGNIFICANT WEATHER AND/OR OBSTRUCTIONS TO VISIBILITY.
       CURRENT SKY AND/OR WEATHER CONDITIONS ARE NOT AVAILABLE FOR
       CHILLICOTHE AND FARMINGTON.

MOZ001>031-035>038-043-044-053-054-100400-
...NORTHERN AND WESTERN MISSOURI...

CITY           SKY/WX    TMP DP  RH WIND       PRES   REMARKS
KANSAS CTY INT CLEAR     22   9  57 NW12      30.25F WCI  10
KANSAS C DTWN  CLEAR     25   8  48 NW9       30.27S WCI  15
LEE`S SUMMIT   CLEAR     23   7  50 NW16      30.25S WCI  10
ST JOSEPH      CLEAR     19   9  65 NW8       30.27F WCI   9
CHILLICOTHE      N/A     21   9  59 NW8       30.23S WCI  11
KIRKSVILLE     CLEAR     16   4  59 NW15      30.17R WCI   1

$$
MOZ066>068-077>081-088>096-101>105-100400-
...SOUTHWEST MISSOURI...

CITY           SKY/WX    TMP DP  RH WIND       PRES   REMARKS
SPRINGFIELD    CLEAR     25   3  38 NW18G25   30.19R WCI  11
JOPLIN         PTCLDY    26   6  42 NW12      30.29R WCI  16

$$
MOZ032>034-039>042-045>050-055>058-069>072-100400-
...CENTRAL MISSOURI...

CITY           SKY/WX    TMP DP  RH WIND       PRES   REMARKS
COLUMBIA       CLEAR     20   8  60 NW12      30.16R WCI   8
JEFFERSON CITY CLEAR     22   7  52 NW12      30.19R WCI  10
ROLLA          CLEAR     20   8  60 W12       30.11S WCI   8
SEDALIA        CLEAR     23   6  48 NW16G28   30.21R WCI  10
WHITEMAN AFB   CLEAR     23   6  48 NW14      30.22R WCI  10
WARRENSBURG    CLEAR     23   9  54 NW14      30.25R WCI  11
OSAGE BEACH    CLEAR     23   3  42 W9G17     30.18S WCI  13

$$
MOZ051-052-059>065-100400-
...EAST CENTRAL MISSOURI...

CITY           SKY/WX    TMP DP  RH WIND       PRES   REMARKS
ST LOUIS INTL  PTCLDY    23  10  57 NW15G24   30.10S WCI  10
SPIRIT OF STL  CLOUDY    24   8  50 NW20G28   30.12R WCI  10
ST CHARLES     CLEAR     21  10  62 NW17G25   30.12R WCI   7

$$
MOZ072>076-082>087-097>100-106>115-100400-
...SOUTH CENTRAL AND SOUTHEAST MISSOURI...

CITY           SKY/WX    TMP DP  RH WIND       PRES   REMARKS
CAPE GIRARDEAU MOCLDY    20  12  71 W7        30.12S WCI  11
FARMINGTON     CLOUDY    23  10  57 NW14      30.09S WCI  11
POPLAR BLUFF   CLEAR     27  11  51 NW13G20   30.14S WCI  16
WEST PLAINS    CLEAR     25   7  46 NW10G22   30.13R WCI  15

$$



USA.gov is the U.S. government's official web portal to all federal, state and local government web resources and services.